Погода в Баддине

Австралия     26°42′08″S   153°07′45″E
темп.,
°C
ветер,
м/с
пор.,
м/с
влажн.,
%
обл.,
%
осадки,
мм/ч
давл.,
гПа
погр.,
м
6 мая, чт
чт601:00+16зюз811650 0.0 1010692
04:00+15з69680 0.0 1009554
07:00+16юз67735 0.0 1010344
10:00+18юз67635 0.0 1010540
13:00+21юз24480 0.0 1008777
16:00+21ссв545814 0.0 1008298
19:00+22сз345911 0.0 1010307
22:00+21з6106299 0.0 1010496
7 мая, пт
пт701:00+20з5963100 0.0 1010327
04:00+19зсз5668100 0.0 1010200
07:00+20зсз5668100 0.0 1011204
10:00+21сз556497 0.0 1012332
13:00+24с445475 0.0 1010579
16:00+24ссв566497 0.0 1009192
19:00+24с337083 0.0 1012155
22:00+22сз5567100 0.0 1013207
8 мая, сб
сб801:00+21ссз556899 0.0 1013268
04:00+20сз4568100 0.0 1013243
07:00+20сз346689 0.0 1015227
10:00+21ссз22630 0.0 1016205
13:00+23св44635 0.0 1014238
16:00+23св5463100 0.0 1014348
19:00+24ссв567395 0.0 1016449
22:00+23с7876100 0.3 1017499
9 мая, вс
вс901:00+22ссз5676100 0.8 1017412
04:00+21сз4475100 0.9 1016201
07:00+21сз3372100 0.0 1018169
10:00+22зсз1169100 0.0 1019173
13:00+22всв1168100 0.0 1017188
16:00+23в337195 0.0 1016382
19:00+24в346771 0.0 1018562
22:00+23всв126323 0.0 1018363
10 мая, пн
пн1001:00+22юз32730 0.0 1018159
04:00+21ююз43830 0.0 1017226
07:00+21ююз44811 0.0 1018397
10:00+22ю43815 0.0 1019353
13:00+22ююв22785 0.4 1016438
16:00+23в4478100 0.8 1015412
19:00+24всв3480100 0.0 1016398
22:00+23с2281100 1.0 1016188